OneWeb SL0598

operational
NORAD ID: 55154 Int'l Des: 2023-004 Owner: ONEWEBN Country: UK Constellation: oneweb
LEOCIRCULARPOLARONEWEB_TYPE

OneWeb SL0598について

説明を読み込み中...

リアルタイム位置

3D地球を読み込み中...

次回通過

高度履歴

Altitude vs Time

uPlot chart will show altitude changes over time

軌道要素

1 55154U 23004Q 25258.56817637 .00000424 00000-0 11610-2 0 9995
2 55154 87.8774 75.7897 0001373 111.7919 248.3355 13.11414496129904
Epoch: Sep 15, 2025 • Age: 12 hours

現在のステータス

高度 1231.1 km
速度 7.24 km/s
衛星直下点 -34.78°S, 123.81°W
打ち上げ日 Jan 10, 2023
運用期間 2.6 years
タイプ internet

技術仕様

分類 Payload
質量 148.00 kg
乾燥質量 140.00 kg
総質量 148.00 kg
長さ 1.30 m
直径 1.00 m
スパン 5.00 m
形状 Trapezoid+2 pan
製造者 ONEWUS
バスタイプ ARROW
フェーズステータス In Orbit
所有者/国 ONEWEBN/UK

大規模コンステレーション

Loading constellations...